| time (UTC) | temp F | wind direction | speed MPH | gust MPH | rain 1hr in | rain 24hr in | rain mn in | humidity % | barometer mb |
| 20260510085131 | 58 | 141 | 0.0 | 2.0 | 0.01 | 0.01 | 0.01 | 73 | 1015.3 |
| 20260510084631 | 58 | 141 | 0.0 | 3.0 | 0.01 | 0.01 | 0.01 | 73 | 1015.4 |
| 20260510084131 | 58 | 141 | 1.0 | 4.0 | 0.01 | 0.01 | 0.01 | 73 | 1015.4 |
| 20260510083631 | 59 | 141 | 1.0 | 4.0 | 0.00 | 0.00 | 0.00 | 73 | 1015.3 |
| 20260510083128 | 59 | 15 | 0.0 | 1.0 | 0.00 | 0.00 | 0.00 | 73 | 1015.2 |
| 20260510082621 | 59 | 15 | 0.0 | 0.0 | 0.00 | 0.00 | 0.00 | 72 | 1015.1 |
| 20260510082117 | 59 | 15 | 0.0 | 0.0 | 0.00 | 0.00 | 0.00 | 73 | 1015.1 |
| 20260510081612 | 59 | 15 | 0.0 | 1.0 | 0.00 | 0.00 | 0.00 | 73 | 1015.1 |
| 20260510081110 | 59 | 15 | 1.0 | 3.0 | 0.00 | 0.00 | 0.00 | 73 | 1015.1 |
| 20260510080620 | 59 | 15 | 1.0 | 3.0 | 0.00 | 0.00 | 0.00 | 73 | 1015.1 |
| 20260510080117 | 59 | 218 | 0.0 | 1.0 | 0.00 | 0.00 | 0.00 | 74 | 1015.1 |
| 20260510075608 | 59 | 217 | 0.0 | 1.0 | 0.00 | 0.00 | 0.00 | 74 | 1015.1 |
| 20260510075106 | 59 | 217 | 0.0 | 2.0 | 0.00 | 0.00 | 0.00 | 74 | 1015.0 |
| 20260510074608 | 59 | 217 | 0.0 | 2.0 | 0.00 | 0.00 | 0.00 | 74 | 1015.1 |
| 20260510074352 | 59 | 217 | 0.0 | 2.0 | 0.00 | 0.00 | 0.00 | 74 | 1015.0 |
| 20260510073604 | 59 | 232 | 0.0 | 2.0 | 0.00 | 0.00 | 0.00 | 74 | 1015.1 |
| 20260510073104 | 59 | 232 | 0.0 | 2.0 | 0.00 | 0.00 | 0.00 | 75 | 1015.0 |
| 20260510072604 | 59 | 231 | 1.0 | 3.0 | 0.00 | 0.00 | 0.00 | 75 | 1014.9 |
| 20260510072106 | 59 | 231 | 1.0 | 3.0 | 0.00 | 0.00 | 0.00 | 75 | 1015.0 |
| 20260510071603 | 59 | 308 | 1.0 | 2.0 | 0.00 | 0.00 | 0.00 | 75 | 1014.9 |
| 20260510071100 | 59 | 305 | 1.0 | 3.0 | 0.00 | 0.00 | 0.00 | 76 | 1014.9 |
| 20260510070602 | 59 | 305 | 1.0 | 4.0 | 0.00 | 0.00 | 0.00 | 76 | 1014.9 |
| 20260510070100 | 59 | 305 | 1.0 | 7.0 | 0.00 | 0.00 | 0.00 | 77 | 1014.8 |
| 20260510065550 | 59 | 264 | 1.0 | 7.0 | 0.00 | 0.00 | 0.00 | 77 | 1014.8 |
| 20260510065044 | 59 | 211 | 1.0 | 4.0 | 0.00 | 0.00 | 0.00 | 76 | 1014.8 |
| 20260510064622 | 59 | 132 | 1.0 | 4.0 | 0.00 | 0.00 | 0.00 | 75 | 1014.8 |
| 20260510064600 | 59 | 241 | 1.0 | 4.0 | 0.00 | 0.00 | 0.00 | 76 | 1014.7 |
| 20260510063538 | 60 | 202 | 2.0 | 4.0 | 0.00 | 0.00 | 0.00 | 75 | 1014.8 |
| 20260510063039 | 60 | 287 | 2.0 | 7.0 | 0.00 | 0.00 | 0.00 | 75 | 1014.8 |
| 20260510062537 | 60 | 285 | 2.0 | 7.0 | 0.00 | 0.00 | 0.00 | 74 | 1014.7 |
| 20260510062036 | 59 | 300 | 2.0 | 3.0 | 0.00 | 0.00 | 0.00 | 75 | 1014.7 |
| 20260510061537 | 59 | 300 | 1.0 | 2.0 | 0.00 | 0.00 | 0.00 | 75 | 1014.7 |
| 20260510061036 | 59 | 300 | 1.0 | 2.0 | 0.00 | 0.00 | 0.00 | 76 | 1014.6 |
| 20260510060534 | 59 | 300 | 1.0 | 2.0 | 0.00 | 0.00 | 0.00 | 76 | 1014.5 |
| 20260510060317 | 60 | 300 | 0.0 | 2.0 | 0.00 | 0.00 | 0.00 | 76 | 1014.5 |
| 20260510055533 | 60 | 300 | 0.0 | 2.0 | 0.00 | 0.00 | 0.00 | 76 | 1014.5 |
| 20260510055034 | 60 | 300 | 0.0 | 1.0 | 0.00 | 0.00 | 0.00 | 76 | 1014.5 |
| 20260510054559 | 60 | 300 | 0.0 | 1.0 | 0.00 | 0.00 | 0.00 | 77 | 1014.5 |
| 20260510054549 | 60 | 300 | 0.0 | 1.0 | 0.00 | 0.00 | 0.00 | 77 | 1014.5 |
| 20260510053533 | 60 | 300 | 0.0 | 1.0 | 0.00 | 0.00 | 0.00 | 76 | 1014.7 |
| 20260510053032 | 59 | 300 | 0.0 | 1.0 | 0.00 | 0.00 | 0.00 | 76 | 1014.6 |
| 20260510052531 | 59 | 300 | 0.0 | 1.0 | 0.00 | 0.00 | 0.00 | 76 | 1014.8 |
| 20260510052314 | 59 | 300 | 1.0 | 2.0 | 0.00 | 0.00 | 0.00 | 76 | 1014.7 |
| 20260510051528 | 59 | 300 | 1.0 | 2.0 | 0.00 | 0.00 | 0.00 | 75 | 1014.7 |
| 20260510051302 | 59 | 300 | 1.0 | 2.0 | 0.00 | 0.00 | 0.00 | 76 | 1014.6 |
| 20260510050524 | 59 | 300 | 1.0 | 2.0 | 0.00 | 0.00 | 0.00 | 75 | 1014.6 |
| 20260510050346 | 59 | 300 | 1.0 | 2.0 | 0.00 | 0.00 | 0.00 | 75 | 1014.6 |
| 20260510045519 | 59 | 300 | 1.0 | 2.0 | 0.00 | 0.00 | 0.00 | 75 | 1014.5 |
| 20260510045252 | 59 | 300 | 1.0 | 2.0 | 0.00 | 0.00 | 0.00 | 75 | 1014.5 |
| 20260510044519 | 59 | 300 | 1.0 | 2.0 | 0.00 | 0.00 | 0.00 | 75 | 1014.5 |
| 20260510044047 | 60 | 300 | 1.0 | 3.0 | 0.00 | 0.00 | 0.00 | 75 | 1014.6 |
| 20260510044035 | 59 | 300 | 0.0 | 2.0 | 0.00 | 0.00 | 0.00 | 75 | 1014.6 |
| 20260510043018 | 60 | 300 | 2.0 | 4.0 | 0.00 | 0.00 | 0.00 | 74 | 1014.5 |
| 20260510042816 | 60 | 300 | 2.0 | 4.0 | 0.00 | 0.00 | 0.00 | 74 | 1014.5 |
| 20260510042013 | 59 | 280 | 2.0 | 4.0 | 0.00 | 0.00 | 0.00 | 74 | 1014.5 |
| 20260510041546 | 59 | 4 | 2.0 | 3.0 | 0.00 | 0.00 | 0.00 | 76 | 1014.4 |
| 20260510041538 | 59 | 309 | 2.0 | 3.0 | 0.00 | 0.00 | 0.00 | 75 | 1014.4 |
| 20260510040513 | 59 | 354 | 2.0 | 3.0 | 0.00 | 0.00 | 0.00 | 76 | 1014.3 |
| 20260510040013 | 59 | 354 | 2.0 | 3.0 | 0.00 | 0.00 | 0.00 | 76 | 1014.4 |
| 20260510035810 | 59 | 354 | 2.0 | 3.0 | 0.00 | 0.00 | 0.00 | 77 | 1014.1 |
| 20260510035011 | 59 | 359 | 2.0 | 3.0 | 0.00 | 0.00 | 0.00 | 77 | 1014.1 |
| 20260510034507 | 59 | 354 | 2.0 | 4.0 | 0.00 | 0.00 | 0.00 | 77 | 1014.3 |
| 20260510034008 | 59 | 10 | 2.0 | 4.0 | 0.00 | 0.00 | 0.00 | 77 | 1014.3 |
| 20260510033756 | 59 | 354 | 2.0 | 3.0 | 0.00 | 0.00 | 0.00 | 76 | 1014.3 |
| 20260510033008 | 60 | 336 | 1.0 | 3.0 | 0.00 | 0.00 | 0.00 | 76 | 1014.4 |
| 20260510032517 | 60 | 350 | 1.0 | 2.0 | 0.00 | 0.00 | 0.00 | 75 | 1014.4 |
| 20260510032007 | 60 | 350 | 1.0 | 2.0 | 0.00 | 0.00 | 0.00 | 74 | 1014.5 |
| 20260510031507 | 60 | 350 | 1.0 | 2.0 | 0.00 | 0.00 | 0.00 | 74 | 1014.6 |
| 20260510031128 | 60 | 350 | 1.0 | 2.0 | 0.00 | 0.00 | 0.00 | 73 | 1014.7 |
| 20260510031103 | 60 | 350 | 1.0 | 2.0 | 0.00 | 0.00 | 0.00 | 73 | 1014.6 |
| 20260510030826 | 60 | 350 | 1.0 | 2.0 | 0.00 | 0.00 | 0.00 | 73 | 1014.7 |
| 20260510025505 | 60 | 350 | 1.0 | 2.0 | 0.00 | 0.00 | 0.00 | 73 | 1014.7 |
| 20260510025005 | 60 | 354 | 1.0 | 3.0 | 0.00 | 0.00 | 0.00 | 73 | 1014.8 |
| 20260510024506 | 60 | 354 | 1.0 | 3.0 | 0.00 | 0.00 | 0.00 | 73 | 1014.8 |
| 20260510024008 | 60 | 354 | 1.0 | 2.0 | 0.00 | 0.00 | 0.00 | 73 | 1014.8 |
| 20260510023508 | 60 | 354 | 1.0 | 2.0 | 0.00 | 0.00 | 0.00 | 73 | 1014.8 |
| 20260510023329 | 60 | 354 | 1.0 | 3.0 | 0.00 | 0.00 | 0.00 | 72 | 1014.8 |
| 20260510023325 | 60 | 354 | 2.0 | 3.0 | 0.00 | 0.00 | 0.00 | 73 | 1014.8 |
| 20260510022003 | 60 | 294 | 1.0 | 3.0 | 0.00 | 0.00 | 0.00 | 71 | 1014.9 |
| 20260510021503 | 60 | 294 | 0.0 | 2.0 | 0.00 | 0.00 | 0.00 | 72 | 1015.0 |
| 20260510021003 | 60 | 294 | 0.0 | 2.0 | 0.00 | 0.00 | 0.00 | 71 | 1015.0 |
| 20260510020503 | 60 | 294 | 1.0 | 2.0 | 0.00 | 0.00 | 0.00 | 72 | 1014.9 |
| 20260510020000 | 60 | 294 | 1.0 | 3.0 | 0.00 | 0.00 | 0.00 | 71 | 1015.0 |
| 20260510015500 | 60 | 294 | 2.0 | 4.0 | 0.00 | 0.00 | 0.00 | 71 | 1014.9 |
| 20260510014954 | 60 | 285 | 1.0 | 4.0 | 0.00 | 0.00 | 0.00 | 71 | 1014.9 |
| 20260510014452 | 60 | 280 | 1.0 | 2.0 | 0.00 | 0.00 | 0.00 | 72 | 1014.8 |
| 20260510014233 | 60 | 280 | 2.0 | 3.0 | 0.00 | 0.00 | 0.00 | 72 | 1014.8 |
| 20260510013449 | 60 | 280 | 1.0 | 3.0 | 0.00 | 0.00 | 0.00 | 71 | 1014.8 |
| 20260510012952 | 61 | 280 | 1.0 | 3.0 | 0.00 | 0.00 | 0.00 | 70 | 1014.7 |
| 20260510012452 | 61 | 264 | 1.0 | 3.0 | 0.00 | 0.00 | 0.00 | 70 | 1014.8 |
| 20260510011950 | 61 | 13 | 1.0 | 4.0 | 0.00 | 0.00 | 0.00 | 69 | 1014.8 |
| 20260510011448 | 61 | 238 | 1.0 | 4.0 | 0.00 | 0.00 | 0.00 | 69 | 1014.8 |
| 20260510010949 | 61 | 21 | 1.0 | 4.0 | 0.00 | 0.00 | 0.00 | 69 | 1014.9 |
| 20260510010448 | 61 | 239 | 1.0 | 4.0 | 0.00 | 0.00 | 0.00 | 69 | 1015.0 |
| 20260510005947 | 61 | 345 | 1.0 | 4.0 | 0.00 | 0.00 | 0.00 | 69 | 1015.1 |
| 20260510005454 | 60 | 27 | 1.0 | 4.0 | 0.00 | 0.00 | 0.00 | 70 | 1015.2 |
| 20260510004949 | 60 | 40 | 1.0 | 4.0 | 0.00 | 0.00 | 0.00 | 71 | 1015.4 |
| 20260510004447 | 60 | 40 | 1.0 | 4.0 | 0.00 | 0.00 | 0.00 | 71 | 1015.5 |
| 20260510003945 | 60 | 314 | 1.0 | 2.0 | 0.00 | 0.00 | 0.00 | 71 | 1015.7 |
| 20260510003441 | 61 | 313 | 1.0 | 2.0 | 0.00 | 0.00 | 0.00 | 71 | 1015.8 |
| 20260510002941 | 61 | 313 | 1.0 | 2.0 | 0.00 | 0.00 | 0.00 | 70 | 1015.9 |
| 20260510002459 | 61 | 307 | 1.0 | 2.0 | 0.00 | 0.00 | 0.00 | 70 | 1016.0 |
| 20260510001940 | 61 | 307 | 1.0 | 2.0 | 0.00 | 0.00 | 0.00 | 69 | 1016.0 |
| 20260510001438 | 62 | 307 | 1.0 | 3.0 | 0.00 | 0.00 | 0.00 | 68 | 1016.1 |
| 20260510000937 | 62 | 307 | 2.0 | 3.0 | 0.00 | 0.00 | 0.00 | 68 | 1016.1 |
| 20260510000440 | 62 | 296 | 2.0 | 8.0 | 0.00 | 0.00 | 0.00 | 67 | 1016.2 |
| 20260509235935 | 62 | 297 | 3.0 | 8.0 | 0.00 | 0.00 | 0.00 | 66 | 1016.3 |
| 20260509235437 | 61 | 246 | 2.0 | 7.0 | 0.00 | 0.00 | 0.00 | 67 | 1016.4 |
| 20260509234940 | 61 | 216 | 1.0 | 5.0 | 0.00 | 0.00 | 0.00 | 68 | 1016.5 |
| 20260509234438 | 61 | 291 | 2.0 | 3.0 | 0.00 | 0.00 | 0.00 | 69 | 1016.4 |
| 20260509233935 | 61 | 291 | 1.0 | 3.0 | 0.00 | 0.00 | 0.00 | 68 | 1016.3 |
| 20260509233436 | 61 | 290 | 1.0 | 3.0 | 0.00 | 0.00 | 0.00 | 69 | 1016.4 |
| 20260509232935 | 61 | 320 | 1.0 | 2.0 | 0.00 | 0.00 | 0.00 | 70 | 1016.4 |
| 20260509232436 | 61 | 320 | 1.0 | 2.0 | 0.00 | 0.00 | 0.00 | 70 | 1016.4 |
| 20260509232224 | 61 | 320 | 1.0 | 3.0 | 0.00 | 0.00 | 0.00 | 70 | 1016.4 |
| 20260509231436 | 61 | 320 | 2.0 | 4.0 | 0.00 | 0.00 | 0.00 | 70 | 1016.4 |
| 20260509230935 | 61 | 320 | 2.0 | 4.0 | 0.00 | 0.00 | 0.00 | 68 | 1016.4 |
| 20260509230448 | 61 | 280 | 2.0 | 6.0 | 0.00 | 0.00 | 0.00 | 69 | 1016.3 |
| 20260509230220 | 61 | 278 | 2.0 | 6.0 | 0.00 | 0.00 | 0.00 | 68 | 1016.3 |
| 20260509225438 | 61 | 325 | 2.0 | 3.0 | 0.00 | 0.00 | 0.00 | 69 | 1016.2 |
| 20260509224935 | 61 | 305 | 2.0 | 3.0 | 0.00 | 0.00 | 0.00 | 70 | 1016.1 |
| 20260509224434 | 61 | 302 | 2.0 | 3.0 | 0.00 | 0.00 | 0.00 | 70 | 1016.0 |
| 20260509223934 | 61 | 301 | 2.0 | 4.0 | 0.00 | 0.00 | 0.00 | 69 | 1015.9 |
| 20260509223432 | 61 | 354 | 2.0 | 4.0 | 0.00 | 0.00 | 0.00 | 69 | 1015.9 |
| 20260509222932 | 61 | 293 | 2.0 | 4.0 | 0.00 | 0.00 | 0.00 | 70 | 1015.8 |
| 20260509222433 | 61 | 276 | 2.0 | 3.0 | 0.00 | 0.00 | 0.00 | 69 | 1015.8 |
| 20260509221933 | 61 | 8 | 2.0 | 3.0 | 0.00 | 0.00 | 0.00 | 70 | 1015.8 |
| 20260509221434 | 61 | 317 | 1.0 | 3.0 | 0.00 | 0.00 | 0.00 | 70 | 1015.9 |
| 20260509220934 | 61 | 44 | 1.0 | 4.0 | 0.00 | 0.00 | 0.00 | 70 | 1015.8 |
| 20260509220448 | 60 | 44 | 2.0 | 4.0 | 0.00 | 0.00 | 0.00 | 70 | 1015.9 |
| 20260509215934 | 60 | 283 | 1.0 | 3.0 | 0.00 | 0.00 | 0.00 | 71 | 1015.9 |
| 20260509215725 | 60 | 345 | 1.0 | 2.0 | 0.00 | 0.00 | 0.00 | 72 | 1016.0 |
| 20260509214934 | 60 | 344 | 1.0 | 2.0 | 0.00 | 0.00 | 0.00 | 73 | 1016.1 |
| 20260509214438 | 60 | 344 | 1.0 | 2.0 | 0.00 | 0.00 | 0.00 | 72 | 1016.2 |
| 20260509213934 | 60 | 310 | 1.0 | 2.0 | 0.00 | 0.00 | 0.00 | 72 | 1016.4 |
| 20260509213433 | 60 | 291 | 1.0 | 2.0 | 0.00 | 0.00 | 0.00 | 72 | 1016.5 |
| 20260509212934 | 61 | 259 | 1.0 | 2.0 | 0.00 | 0.00 | 0.00 | 72 | 1016.6 |
| 20260509212433 | 61 | 259 | 1.0 | 2.0 | 0.00 | 0.00 | 0.00 | 71 | 1016.6 |
| 20260509211933 | 61 | 260 | 1.0 | 2.0 | 0.00 | 0.00 | 0.00 | 71 | 1016.7 |
| 20260509211433 | 61 | 199 | 1.0 | 3.0 | 0.00 | 0.00 | 0.00 | 70 | 1016.9 |
| 20260509210933 | 61 | 197 | 1.0 | 3.0 | 0.00 | 0.00 | 0.00 | 69 | 1016.9 |
| 20260509210435 | 62 | 48 | 0.0 | 3.0 | 0.00 | 0.00 | 0.00 | 68 | 1016.9 |
| 20260509205937 | 62 | 314 | 0.0 | 2.0 | 0.00 | 0.00 | 0.00 | 68 | 1016.9 |
| 20260509205434 | 62 | 314 | 1.0 | 2.0 | 0.00 | 0.00 | 0.00 | 68 | 1016.7 |
| 20260509204937 | 62 | 314 | 1.0 | 2.0 | 0.00 | 0.00 | 0.00 | 67 | 1016.7 |
| 20260509204437 | 62 | 314 | 1.0 | 2.0 | 0.00 | 0.00 | 0.00 | 67 | 1016.7 |
| 20260509203934 | 62 | 314 | 1.0 | 2.0 | 0.00 | 0.00 | 0.00 | 66 | 1016.7 |
| 20260509203434 | 62 | 314 | 1.0 | 2.0 | 0.00 | 0.00 | 0.00 | 66 | 1016.7 |
| 20260509202936 | 62 | 311 | 1.0 | 3.0 | 0.00 | 0.00 | 0.00 | 67 | 1016.6 |
| 20260509202434 | 62 | 311 | 2.0 | 4.0 | 0.00 | 0.00 | 0.00 | 67 | 1016.6 |
| 20260509202231 | 62 | 310 | 2.0 | 4.0 | 0.00 | 0.00 | 0.00 | 66 | 1016.5 |
| 20260509201433 | 62 | 4 | 2.0 | 3.0 | 0.00 | 0.00 | 0.00 | 66 | 1016.5 |
| 20260509200934 | 62 | 4 | 2.0 | 3.0 | 0.00 | 0.00 | 0.00 | 66 | 1016.5 |
| 20260509200436 | 62 | 4 | 2.0 | 3.0 | 0.00 | 0.00 | 0.00 | 66 | 1016.4 |
| 20260509195936 | 62 | 4 | 2.0 | 3.0 | 0.00 | 0.00 | 0.00 | 66 | 1016.3 |
| 20260509195436 | 62 | 4 | 2.0 | 3.0 | 0.00 | 0.00 | 0.00 | 66 | 1016.3 |
| 20260509194934 | 62 | 4 | 2.0 | 3.0 | 0.00 | 0.00 | 0.00 | 66 | 1016.2 |
| 20260509194434 | 62 | 4 | 2.0 | 3.0 | 0.00 | 0.00 | 0.00 | 66 | 1016.3 |
| 20260509193935 | 62 | 4 | 2.0 | 3.0 | 0.00 | 0.00 | 0.00 | 66 | 1016.2 |
| 20260509193751 | 62 | 4 | 2.0 | 3.0 | 0.00 | 0.00 | 0.00 | 66 | 1016.1 |
| 20260509193747 | 62 | 4 | 2.0 | 3.0 | 0.00 | 0.00 | 0.00 | 66 | 1016.2 |
| 20260509192722 | 62 | 4 | 2.0 | 3.0 | 0.00 | 0.00 | 0.00 | 66 | 1016.1 |
| 20260509191941 | 62 | 4 | 2.0 | 3.0 | 0.00 | 0.00 | 0.00 | 66 | 1016.0 |
| 20260509191433 | 62 | 4 | 2.0 | 3.0 | 0.00 | 0.00 | 0.00 | 66 | 1016.0 |
| 20260509190935 | 62 | 4 | 2.0 | 3.0 | 0.00 | 0.00 | 0.00 | 66 | 1015.9 |
| 20260509190433 | 62 | 340 | 2.0 | 3.0 | 0.00 | 0.00 | 0.00 | 66 | 1015.9 |
| 20260509185935 | 62 | 340 | 2.0 | 3.0 | 0.00 | 0.00 | 0.00 | 66 | 1015.8 |
| 20260509185435 | 63 | 340 | 2.0 | 3.0 | 0.00 | 0.00 | 0.00 | 66 | 1015.8 |
| 20260509185221 | 63 | 340 | 2.0 | 3.0 | 0.00 | 0.00 | 0.00 | 66 | 1015.8 |
| 20260509184431 | 63 | 340 | 1.0 | 3.0 | 0.00 | 0.00 | 0.00 | 65 | 1015.8 |
| 20260509183924 | 63 | 340 | 2.0 | 3.0 | 0.00 | 0.00 | 0.00 | 65 | 1015.7 |
| 20260509183715 | 63 | 340 | 2.0 | 3.0 | 0.00 | 0.00 | 0.00 | 64 | 1015.7 |
| 20260509183210 | 63 | 346 | 2.0 | 3.0 | 0.00 | 0.00 | 0.00 | 64 | 1015.6 |
| 20260509182430 | 64 | 346 | 2.0 | 3.0 | 0.00 | 0.00 | 0.00 | 63 | 1015.6 |
| 20260509181925 | 64 | 346 | 2.0 | 3.0 | 0.00 | 0.00 | 0.00 | 63 | 1015.7 |
| 20260509181421 | 64 | 354 | 2.0 | 3.0 | 0.00 | 0.00 | 0.00 | 63 | 1015.7 |
| 20260509180921 | 64 | 24 | 2.0 | 3.0 | 0.00 | 0.00 | 0.00 | 63 | 1015.7 |
| 20260509180419 | 64 | 24 | 2.0 | 3.0 | 0.00 | 0.00 | 0.00 | 62 | 1015.8 |
| 20260509175918 | 64 | 24 | 2.0 | 3.0 | 0.00 | 0.00 | 0.00 | 61 | 1015.7 |
| 20260509175414 | 64 | 309 | 2.0 | 4.0 | 0.00 | 0.00 | 0.00 | 63 | 1015.7 |
| 20260509174915 | 64 | 308 | 2.0 | 4.0 | 0.00 | 0.00 | 0.00 | 61 | 1015.7 |
| 20260509174417 | 64 | 333 | 2.0 | 3.0 | 0.00 | 0.00 | 0.00 | 62 | 1015.7 |
| 20260509173912 | 64 | 333 | 2.0 | 3.0 | 0.00 | 0.00 | 0.00 | 63 | 1015.7 |
| 20260509173415 | 64 | 335 | 2.0 | 3.0 | 0.00 | 0.00 | 0.00 | 63 | 1015.7 |
| 20260509173155 | 64 | 335 | 2.0 | 2.0 | 0.00 | 0.00 | 0.00 | 63 | 1015.6 |
| 20260509172413 | 64 | 333 | 1.0 | 2.0 | 0.00 | 0.00 | 0.00 | 64 | 1015.5 |
| 20260509171907 | 65 | 333 | 1.0 | 3.0 | 0.00 | 0.00 | 0.00 | 63 | 1015.5 |
| 20260509171408 | 65 | 333 | 1.0 | 3.0 | 0.00 | 0.00 | 0.00 | 64 | 1015.6 |
| 20260509170906 | 65 | 330 | 2.0 | 3.0 | 0.00 | 0.00 | 0.00 | 65 | 1015.6 |
| 20260509170407 | 65 | 4 | 2.0 | 3.0 | 0.00 | 0.00 | 0.00 | 65 | 1015.6 |
| 20260509165905 | 65 | 4 | 1.0 | 2.0 | 0.00 | 0.00 | 0.00 | 67 | 1015.6 |
| 20260509165454 | 65 | 4 | 1.0 | 3.0 | 0.00 | 0.00 | 0.00 | 65 | 1015.8 |
| 20260509165430 | 65 | 4 | 1.0 | 3.0 | 0.00 | 0.00 | 0.00 | 67 | 1015.7 |
| 20260509164404 | 66 | 316 | 1.0 | 2.0 | 0.00 | 0.00 | 0.00 | 67 | 1015.8 |
| 20260509164209 | 66 | 316 | 1.0 | 2.0 | 0.00 | 0.00 | 0.00 | 67 | 1015.9 |
| 20260509163405 | 65 | 316 | 1.0 | 2.0 | 0.00 | 0.00 | 0.00 | 67 | 1015.9 |
| 20260509162907 | 65 | 316 | 1.0 | 2.0 | 0.00 | 0.00 | 0.00 | 66 | 1016.0 |
| 20260509162405 | 65 | 316 | 2.0 | 3.0 | 0.00 | 0.00 | 0.00 | 66 | 1016.1 |
| 20260509162154 | 65 | 315 | 2.0 | 3.0 | 0.00 | 0.00 | 0.00 | 64 | 1016.1 |
| 20260509161404 | 65 | 315 | 1.0 | 2.0 | 0.00 | 0.00 | 0.00 | 66 | 1016.2 |
| 20260509160904 | 65 | 315 | 1.0 | 2.0 | 0.00 | 0.00 | 0.00 | 65 | 1016.3 |
| 20260509160406 | 65 | 315 | 1.0 | 2.0 | 0.00 | 0.00 | 0.00 | 66 | 1016.4 |
| 20260509155905 | 65 | 315 | 1.0 | 3.0 | 0.00 | 0.00 | 0.00 | 66 | 1016.4 |
| 20260509155404 | 65 | 315 | 2.0 | 3.0 | 0.00 | 0.00 | 0.00 | 66 | 1016.5 |
| 20260509154904 | 65 | 315 | 2.0 | 3.0 | 0.00 | 0.00 | 0.00 | 69 | 1016.5 |
| 20260509154406 | 65 | 315 | 1.0 | 3.0 | 0.00 | 0.00 | 0.00 | 70 | 1016.6 |
| 20260509154146 | 65 | 314 | 1.0 | 3.0 | 0.00 | 0.00 | 0.00 | 69 | 1016.6 |
| 20260509153405 | 65 | 314 | 1.0 | 2.0 | 0.00 | 0.00 | 0.00 | 69 | 1016.6 |
| 20260509152904 | 65 | 314 | 1.0 | 3.0 | 0.00 | 0.00 | 0.00 | 68 | 1016.6 |
| 20260509152405 | 65 | 314 | 2.0 | 4.0 | 0.00 | 0.00 | 0.00 | 68 | 1016.7 |
| 20260509151904 | 65 | 314 | 1.0 | 4.0 | 0.00 | 0.00 | 0.00 | 68 | 1016.9 |
| 20260509151404 | 66 | 354 | 1.0 | 4.0 | 0.00 | 0.00 | 0.00 | 68 | 1016.9 |
| 20260509150906 | 66 | 122 | 1.0 | 3.0 | 0.00 | 0.00 | 0.00 | 68 | 1016.9 |
| 20260509150404 | 67 | 122 | 1.0 | 4.0 | 0.00 | 0.00 | 0.00 | 66 | 1016.9 |
| 20260509145906 | 67 | 122 | 1.0 | 4.0 | 0.00 | 0.00 | 0.00 | 64 | 1017.0 |
| 20260509145406 | 67 | 167 | 1.0 | 4.0 | 0.00 | 0.00 | 0.00 | 64 | 1017.0 |
| 20260509144906 | 68 | 217 | 1.0 | 4.0 | 0.00 | 0.00 | 0.00 | 63 | 1017.0 |
| 20260509144405 | 68 | 156 | 1.0 | 4.0 | 0.00 | 0.00 | 0.00 | 63 | 1017.1 |
| 20260509143902 | 67 | 164 | 1.0 | 4.0 | 0.00 | 0.00 | 0.00 | 63 | 1017.1 |
| 20260509143403 | 67 | 120 | 2.0 | 4.0 | 0.00 | 0.00 | 0.00 | 63 | 1017.1 |
| 20260509142859 | 67 | 163 | 1.0 | 4.0 | 0.00 | 0.00 | 0.00 | 64 | 1017.1 |
| 20260509142401 | 67 | 164 | 1.0 | 3.0 | 0.00 | 0.00 | 0.00 | 64 | 1017.2 |
| 20260509141858 | 67 | 215 | 2.0 | 7.0 | 0.00 | 0.00 | 0.00 | 64 | 1017.2 |
| 20260509141357 | 67 | 177 | 2.0 | 7.0 | 0.00 | 0.00 | 0.00 | 65 | 1017.3 |
| 20260509140858 | 67 | 147 | 3.0 | 7.0 | 0.00 | 0.00 | 0.00 | 66 | 1017.4 |
| 20260509140641 | 66 | 94 | 3.0 | 7.0 | 0.00 | 0.00 | 0.00 | 65 | 1017.4 |
| 20260509135854 | 67 | 110 | 3.0 | 7.0 | 0.00 | 0.00 | 0.00 | 65 | 1017.5 |
| 20260509135354 | 67 | 185 | 2.0 | 6.0 | 0.00 | 0.00 | 0.00 | 66 | 1017.6 |
| 20260509134854 | 67 | 158 | 2.0 | 6.0 | 0.00 | 0.00 | 0.00 | 66 | 1017.6 |
| 20260509134400 | 66 | 196 | 2.0 | 6.0 | 0.00 | 0.00 | 0.00 | 66 | 1017.6 |
| 20260509134127 | 66 | 135 | 2.0 | 4.0 | 0.00 | 0.00 | 0.00 | 66 | 1017.6 |
| 20260509133442 | 66 | 199 | 2.0 | 6.0 | 0.00 | 0.00 | 0.00 | 66 | 1017.8 |
| 20260509133420 | 66 | 113 | 2.0 | 4.0 | 0.00 | 0.00 | 0.00 | 66 | 1017.7 |
| 20260509132353 | 66 | 143 | 2.0 | 6.0 | 0.00 | 0.00 | 0.00 | 65 | 1017.8 |
| 20260509131854 | 66 | 212 | 2.0 | 6.0 | 0.00 | 0.00 | 0.00 | 66 | 1017.9 |
| 20260509131350 | 66 | 118 | 2.0 | 6.0 | 0.00 | 0.00 | 0.00 | 66 | 1017.9 |
| 20260509130851 | 66 | 126 | 2.0 | 7.0 | 0.00 | 0.00 | 0.00 | 67 | 1018.0 |
| 20260509130350 | 66 | 158 | 3.0 | 7.0 | 0.00 | 0.00 | 0.00 | 66 | 1018.1 |
| 20260509130138 | 66 | 183 | 3.0 | 7.0 | 0.00 | 0.00 | 0.00 | 64 | 1018.1 |
| 20260509125347 | 65 | 162 | 4.0 | 8.0 | 0.00 | 0.00 | 0.00 | 64 | 1018.1 |
| 20260509124845 | 65 | 85 | 4.0 | 9.0 | 0.00 | 0.00 | 0.00 | 64 | 1018.1 |
| 20260509124344 | 65 | 149 | 5.0 | 10.0 | 0.00 | 0.00 | 0.00 | 63 | 1018.2 |
| 20260509123844 | 66 | 139 | 5.0 | 10.0 | 0.00 | 0.00 | 0.00 | 63 | 1018.2 |
| 20260509123341 | 66 | 95 | 4.0 | 12.0 | 0.00 | 0.00 | 0.00 | 65 | 1018.1 |
| 20260509122846 | 66 | 118 | 4.0 | 12.0 | 0.00 | 0.00 | 0.00 | 64 | 1018.2 |
| 20260509122342 | 66 | 111 | 4.0 | 10.0 | 0.00 | 0.00 | 0.00 | 64 | 1018.2 |
| 20260509121843 | 66 | 178 | 4.0 | 10.0 | 0.00 | 0.00 | 0.00 | 64 | 1018.1 |
| 20260509121339 | 66 | 108 | 4.0 | 10.0 | 0.00 | 0.00 | 0.00 | 65 | 1018.2 |
| 20260509121142 | 66 | 91 | 5.0 | 11.0 | 0.00 | 0.00 | 0.00 | 65 | 1018.2 |
| 20260509120338 | 66 | 127 | 4.0 | 11.0 | 0.00 | 0.00 | 0.00 | 65 | 1018.2 |
| 20260509115836 | 66 | 167 | 4.0 | 10.0 | 0.00 | 0.00 | 0.00 | 65 | 1018.2 |
| 20260509115334 | 66 | 153 | 4.0 | 11.0 | 0.00 | 0.00 | 0.00 | 65 | 1018.3 |
| 20260509114834 | 66 | 168 | 4.0 | 12.0 | 0.00 | 0.00 | 0.00 | 66 | 1018.2 |
| 20260509114333 | 66 | 85 | 4.0 | 12.0 | 0.00 | 0.00 | 0.00 | 66 | 1018.3 |
| 20260509113836 | 66 | 127 | 4.0 | 10.0 | 0.00 | 0.00 | 0.00 | 67 | 1018.3 |
| 20260509113622 | 66 | 136 | 5.0 | 13.0 | 0.00 | 0.00 | 0.00 | 67 | 1018.3 |
| 20260509112832 | 66 | 199 | 5.0 | 13.0 | 0.00 | 0.00 | 0.00 | 67 | 1018.3 |
| 20260509112332 | 66 | 102 | 5.0 | 12.0 | 0.00 | 0.00 | 0.00 | 67 | 1018.4 |
| 20260509111831 | 67 | 151 | 4.0 | 13.0 | 0.00 | 0.00 | 0.00 | 67 | 1018.3 |
| 20260509111328 | 66 | 188 | 4.0 | 13.0 | 0.00 | 0.00 | 0.00 | 67 | 1018.3 |
| 20260509110815 | 66 | 160 | 4.0 | 10.0 | 0.00 | 0.00 | 0.00 | 67 | 1018.3 |
| 20260509110325 | 67 | 118 | 4.0 | 10.0 | 0.00 | 0.00 | 0.00 | 67 | 1018.3 |
| 20260509105817 | 67 | 116 | 4.0 | 8.0 | 0.00 | 0.00 | 0.00 | 66 | 1018.2 |
| 20260509105310 | 67 | 75 | 4.0 | 8.0 | 0.00 | 0.00 | 0.00 | 64 | 1018.3 |
| 20260509104810 | 67 | 111 | 3.0 | 9.0 | 0.00 | 0.00 | 0.00 | 65 | 1018.2 |
| 20260509104309 | 67 | 120 | 4.0 | 9.0 | 0.00 | 0.00 | 0.00 | 66 | 1018.2 |
| 20260509103847 | 67 | 91 | 3.0 | 8.0 | 0.00 | 0.00 | 0.00 | 65 | 1018.2 |
| 20260509103835 | 67 | 92 | 4.0 | 8.0 | 0.00 | 0.00 | 0.00 | 66 | 1018.2 |
| 20260509102805 | 67 | 131 | 4.0 | 9.0 | 0.00 | 0.00 | 0.00 | 67 | 1018.2 |
| 20260509102306 | 67 | 102 | 4.0 | 9.0 | 0.00 | 0.00 | 0.00 | 66 | 1018.3 |
| 20260509102054 | 67 | 98 | 4.0 | 9.0 | 0.00 | 0.00 | 0.00 | 65 | 1018.3 |
| 20260509101305 | 67 | 114 | 3.0 | 8.0 | 0.00 | 0.00 | 0.00 | 65 | 1018.3 |
| 20260509100912 | 67 | 90 | 3.0 | 8.0 | 0.00 | 0.00 | 0.00 | 65 | 1018.3 |
| 20260509100833 | 67 | 180 | 3.0 | 8.0 | 0.00 | 0.00 | 0.00 | 65 | 1018.2 |
| 20260509095805 | 67 | 139 | 3.0 | 8.0 | 0.00 | 0.00 | 0.00 | 65 | 1018.3 |
| 20260509095307 | 67 | 96 | 4.0 | 9.0 | 0.00 | 0.00 | 0.00 | 65 | 1018.3 |
| 20260509094808 | 68 | 121 | 4.0 | 9.0 | 0.00 | 0.00 | 0.00 | 63 | 1018.3 |
| 20260509094309 | 68 | 73 | 3.0 | 8.0 | 0.00 | 0.00 | 0.00 | 63 | 1018.3 |
| 20260509093810 | 68 | 142 | 3.0 | 9.0 | 0.00 | 0.00 | 0.00 | 64 | 1018.2 |
| 20260509093310 | 67 | 93 | 3.0 | 9.0 | 0.00 | 0.00 | 0.00 | 64 | 1018.3 |
| 20260509092808 | 67 | 84 | 3.0 | 7.0 | 0.00 | 0.00 | 0.00 | 63 | 1018.4 |
| 20260509092307 | 67 | 171 | 2.0 | 7.0 | 0.00 | 0.00 | 0.00 | 63 | 1018.4 |
| 20260509091805 | 68 | 112 | 2.0 | 7.0 | 0.00 | 0.00 | 0.00 | 64 | 1018.4 |
| 20260509091318 | 68 | 166 | 3.0 | 8.0 | 0.00 | 0.00 | 0.00 | 63 | 1018.5 |
| 20260509091110 | 67 | 101 | 2.0 | 8.0 | 0.00 | 0.00 | 0.00 | 63 | 1018.5 |
| 20260509090307 | 67 | 66 | 2.0 | 4.0 | 0.00 | 0.00 | 0.00 | 63 | 1018.5 |
| 20260509085805 | 67 | 56 | 2.0 | 6.0 | 0.00 | 0.00 | 0.00 | 64 | 1018.5 |